Weather History for Hurlburt Field, FL

Change the Weather History Date:

Thursday, April 3, 2014

  Actual Average Record
Temperature  
Mean Temperature 68 °F -  
Max Temperature 73 °F 71 °F 78 °F (2002)
Min Temperature 64 °F 55 °F 50 °F (1997)
Cooling Degree Days 4    
Growing Degree Days 18 (Base 50)    
Moisture  
Dew Point 61 °F    
Average Humidity 81    
Maximum Humidity 88    
Minimum Humidity 65    
Precipitation  
Precipitation 0.00 in - - ()
Sea Level Pressure  
Sea Level Pressure 30.06 in    
Wind  
Wind Speed 9 mph (SSE)    
Max Wind Speed 17 mph    
Max Gust Speed 24 mph    
Visibility 9 miles    
Events Rain    
Averages and records for this station are not official NWS values.
T = Trace of Precipitation, MM = Missing Value Source: NWS Daily Summary

Daily Weather History Graph

Daily Weather History Graph

Search for Another Location

Airport:

Trip Planner

Search our weather history database for the weather conditions in past years. The results will help you decide how hot, cold, wet, or windy it might be!

Date:

Astronomy

Apr. 03, 2014 Rise Set
Actual Time 6:33 AM CDT 7:06 PM CDT
Civil Twilight 6:09 AM CDT 7:31 PM CDT
Nautical Twilight 5:40 AM CDT 7:59 PM CDT
Astronomical Twilight 5:11 AM CDT 8:28 PM CDT
Moon 9:15 AM CDT (4/3) 11:11 PM CDT (4/3)
Length of Visible Light 13h 21m
Length of Day
12h 33m
Waxing Crescent, 17% of the Moon is Illuminated
Apr 3
Waxing Crescent
Apr 7
First Quarter
Apr 15
Full
Apr 22
Last Quarter
Apr 29
New

Hourly Weather History & Observations

Time (CDT) Temp. Dew Point Humidity Pressure Visibility Wind Dir Wind Speed Gust Speed Precip Events Conditions
12:13 AM 64.4 °F 60.8 °F 88% 30.09 in 10.0 mi SE 5.8 mph - N/A   Mostly Cloudy
12:43 AM 64.4 °F 60.8 °F 88% 30.09 in 10.0 mi SE 5.8 mph - N/A   Overcast
12:58 AM 65.3 °F 60.4 °F 84% 30.10 in 10.0 mi SE 6.9 mph - N/A   Overcast
1:23 AM 66.2 °F 60.8 °F 83% 30.08 in 10.0 mi SE 8.1 mph - N/A   Overcast
1:58 AM 65.5 °F 61.0 °F 85% 30.07 in 10.0 mi SSE 10.4 mph - N/A   Overcast
2:05 AM 66.2 °F 60.8 °F 83% 30.06 in 10.0 mi SSE 9.2 mph - N/A Rain Light Rain
2:14 AM 66.2 °F 60.8 °F 83% 30.06 in 10.0 mi SSE 9.2 mph - N/A   Overcast
2:39 AM 66.2 °F 60.8 °F 83% 30.06 in 10.0 mi SSE 6.9 mph - N/A   Overcast
2:58 AM 65.5 °F 61.0 °F 85% 30.07 in 10.0 mi SSE 10.4 mph - 0.00 in   Overcast
3:08 AM 66.2 °F 60.8 °F 83% 30.06 in 9.0 mi SSE 10.4 mph - N/A   Overcast
3:28 AM 66.2 °F 60.8 °F 83% 30.05 in 4.0 mi SSE 8.1 mph - N/A   Haze
3:38 AM 66.2 °F 60.8 °F 83% 30.04 in 2.5 mi SSE 8.1 mph - N/A   Haze
3:43 AM 66.2 °F 60.8 °F 83% 30.04 in 1.5 mi SE 6.9 mph - N/A   Haze
3:53 AM 66.2 °F 60.8 °F 83% 30.04 in 1.8 mi SSE 5.8 mph - N/A   Haze
3:58 AM 65.5 °F 61.3 °F 86% 30.05 in 1.8 mi SSE 5.8 mph - N/A   Haze
4:08 AM 66.2 °F 60.8 °F 83% 30.04 in 2.5 mi SSE 5.8 mph - N/A   Haze
4:13 AM 66.2 °F 60.8 °F 83% 30.04 in 3.0 mi SSE 6.9 mph - N/A   Haze
4:23 AM 66.2 °F 60.8 °F 83% 30.04 in 5.0 mi SSE 6.9 mph - N/A   Haze
4:58 AM 65.1 °F 61.2 °F 87% 30.05 in 7.0 mi SSE 8.1 mph - N/A   Overcast
5:43 AM 64.4 °F 60.8 °F 88% 30.04 in 10.0 mi SSE 8.1 mph - N/A   Overcast
5:53 AM 64.4 °F 60.8 °F 88% 30.05 in 10.0 mi South 8.1 mph - N/A   Overcast
5:58 AM 64.8 °F 60.8 °F 87% 30.06 in 10.0 mi South 6.9 mph - N/A   Overcast
6:03 AM 64.4 °F 60.8 °F 88% 30.05 in 10.0 mi South 8.1 mph - N/A   Overcast
6:43 AM 64.4 °F 60.8 °F 88% 30.05 in 9.0 mi SSE 8.1 mph - N/A   Scattered Clouds
6:48 AM 64.4 °F 60.8 °F 88% 30.05 in 9.0 mi SSE 6.9 mph - N/A   Mostly Cloudy
6:58 AM 64.6 °F 60.6 °F 87% 30.06 in 10.0 mi South 8.1 mph - N/A   Mostly Cloudy
7:58 AM 66.4 °F 62.1 °F 86% 30.07 in 10.0 mi South 9.2 mph - N/A   Clear
8:58 AM 68.7 °F 61.7 °F 78% 30.08 in 10.0 mi SSE 11.5 mph - N/A   Clear
9:43 AM 69.8 °F 60.8 °F 73% 30.08 in 10.0 mi SSE 13.8 mph - N/A   Mostly Cloudy
9:53 AM 69.8 °F 60.8 °F 73% 30.09 in 10.0 mi SSE 15.0 mph 24.2 mph N/A   Scattered Clouds
9:58 AM 69.8 °F 61.2 °F 74% 30.10 in 10.0 mi SE 16.1 mph 24.2 mph N/A   Scattered Clouds
10:03 AM 69.8 °F 60.8 °F 73% 30.09 in 10.0 mi SSE 15.0 mph 21.9 mph N/A   Mostly Cloudy
10:07 AM 69.8 °F 60.8 °F 73% 30.09 in 10.0 mi SSE 16.1 mph 21.9 mph N/A   Light Drizzle
10:16 AM 69.8 °F 60.8 °F 73% 30.10 in 10.0 mi SSE 16.1 mph - N/A   Scattered Clouds
10:58 AM 71.2 °F 61.3 °F 71% 30.10 in 10.0 mi SSE 17.3 mph - 0.00 in   Clear
11:48 AM 71.6 °F 60.8 °F 69% 30.10 in 10.0 mi SSE 16.1 mph - N/A   Mostly Cloudy
11:58 AM 72.3 °F 61.2 °F 68% 30.10 in 10.0 mi SSE 13.8 mph - N/A   Mostly Cloudy
12:13 PM 73.4 °F 60.8 °F 65% 30.09 in 10.0 mi SE 12.7 mph 21.9 mph N/A   Scattered Clouds
12:58 PM 72.9 °F 61.9 °F 68% 30.09 in 10.0 mi SSE 16.1 mph - N/A   Clear
1:58 PM 73.2 °F 62.2 °F 68% 30.07 in 10.0 mi SE 12.7 mph 21.9 mph N/A   Partly Cloudy
2:58 PM 72.0 °F 62.2 °F 71% 30.04 in 10.0 mi SE 12.7 mph - N/A   Clear
3:58 PM 71.6 °F 62.2 °F 72% 30.03 in 10.0 mi SE 15.0 mph - N/A   Clear
4:58 PM 70.7 °F 62.1 °F 74% 30.03 in 10.0 mi SE 8.1 mph - N/A   Clear
5:58 PM 69.8 °F 61.7 °F 75% 30.03 in 10.0 mi ESE 9.2 mph - N/A   Scattered Clouds
6:58 PM 67.1 °F 61.2 °F 81% 30.03 in 10.0 mi ESE 8.1 mph - N/A   Scattered Clouds
7:58 PM 66.2 °F 61.3 °F 84% 30.04 in 10.0 mi ESE 5.8 mph - N/A   Partly Cloudy
8:07 PM 66.2 °F 60.8 °F 83% 30.02 in 10.0 mi ESE 6.9 mph - N/A   Mostly Cloudy
8:38 PM 66.2 °F 60.8 °F 83% 30.01 in 10.0 mi ESE 6.9 mph - N/A   Scattered Clouds
8:48 PM 66.2 °F 60.8 °F 83% 30.01 in 10.0 mi ESE 9.2 mph - N/A   Mostly Cloudy
8:58 PM 66.0 °F 61.5 °F 85% 30.02 in 10.0 mi ESE 8.1 mph - N/A   Mostly Cloudy
10:58 PM 66.0 °F 61.5 °F 85% 30.00 in 10.0 mi SSE 10.4 mph - N/A   Clear
11:58 PM 66.0 °F 61.3 °F 85% 30.00 in 10.0 mi SSE 11.5 mph - N/A   Clear